Regional Weather Roundup
Issued by NWS

Home | Current Version | Previous Version | Graphics & Text | Print | Product List | Glossary On
Versions: 1 2 3 4 5 6 7 8 9 10 11 12 13 14 15 16 17 18 19 20 21 22 23 24 25 26 27 28 29 30 31 32 33 34 35 36 37 38 39 40 41 42 43 44 45 46 47 48 49 50
000
ASUS43 KOAX 272010
RWRNE

WEATHER ROUNDUP FOR NEBRASKA
NATIONAL WEATHER SERVICE OMAHA NE
300 PM CDT WED AUG 27 2014

NOTES: SATELLITE DATA IS BEING USED TO AUGMENT CLOUD COVER ABOVE
       12000 FEET.
       "FAIR" INDICATES FEW OR NO CLOUDS BELOW 12,000 FEET WITH NO
       SIGNIFICANT WEATHER AND/OR OBSTRUCTIONS TO VISIBILITY.

  * THESE STATIONS DO NOT REPORT WEATHER SUCH AS RAIN...SNOW OR FOG.

NEZ001>004-019>022-054>056-272100-
NEBRASKA PANHANDLE

CITY           SKY/WX    TMP DP  RH WIND       PRES   REMARKS
SCOTTSBLUFF    LGT RAIN  62  62 100 W9        30.13R
ALLIANCE       CLOUDY    75  61  61 S13       30.09S
CHADRON        CLOUDY    75  62  64 N13       30.06F
KIMBALL        CLOUDY    63  60  88 NW12      30.14S
SIDNEY         PTSUNNY   78  59  51 S12       30.10F
$$

NEZ057>060-069>072-079>082-272100-
SOUTHWEST NEBRASKA

CITY           SKY/WX    TMP DP  RH WIND       PRES   REMARKS
NORTH PLATTE   LGT RAIN  70  67  90 E16       30.09F
IMPERIAL       PTSUNNY   77  66  68 SE9       30.06F
LEXINGTON      CLOUDY    75  69  81 E14       30.10F
MCCOOK         CLOUDY    79  66  64 E13       30.07F
OGALLALA       CLOUDY    78  63  60 SE12      30.06F
$$

NEZ005>010-023>029-035>040-094-272100-
NORTH CENTRAL NEBRASKA

CITY           SKY/WX    TMP DP  RH WIND       PRES   REMARKS
VALENTINE      PTSUNNY   77  64  64 SE13      30.09F
AINSWORTH      PTSUNNY   74  65  75 SE14      30.11F
BROKEN BOW     CLOUDY    72  66  81 SE12G22   30.12F
O`NEILL        CLOUDY    73  67  83 S10       30.12S
ORD            CLOUDY    70  66  87 SE10      30.10F
THEDFORD       CLOUDY    70  67  90 SE12G20   30.12S
$$

NEZ041-046>049-061>064-073>077-083>087-272100-
SOUTH CENTRAL NEBRASKA

CITY           SKY/WX    TMP DP  RH WIND       PRES   REMARKS
GRAND ISLAND   PTSUNNY   77  68  73 SE13      30.10F
AURORA         PTSUNNY   78  71  80 SE15      30.11S
HASTINGS       CLOUDY    76  66  71 E10       30.10F
HEBRON         CLOUDY    80  69  69 E8        30.08F
HOLDREGE       LGT RAIN  72  68  86 E12G21    30.10F
KEARNEY *      CLOUDY    75  68  78 E13       30.11F
YORK           CLOUDY    75 N/A N/A SE10      30.11F
$$

NEZ011>018-030>034-042>045-272100-
NORTHEAST NEBRASKA

CITY           SKY/WX    TMP DP  RH WIND       PRES   REMARKS
NORFOLK        CLOUDY    71  67  87 SE8       30.11F
ALBION         CLOUDY    73  67  81 S13       30.11S
BLAIR          LGT RAIN  71  68  91 SE3       30.09F
FREMONT        CLOUDY    72  69  91 SE8       30.10F
TEKAMAH        CLOUDY    72  69  90 SE8       30.10F
WAYNE          CLOUDY    68  66  96 E6        30.13F
$$

NEZ050>053-065>068-078-088>093-272100-
SOUTHEAST NEBRASKA

CITY           SKY/WX    TMP DP  RH WIND       PRES   REMARKS
LINCOLN        CLOUDY    73  69  87 S9        30.12F
OMAHA EPPLEY   LGT RAIN  71  68  90 S9        30.08F
BEATRICE       CLOUDY    79  72  78 E5        30.11S
FALLS CITY     PTSUNNY   79  71  76 E5        30.10F
NEBRASKA CITY  CLOUDY    73  72  95 CALM      30.11F
PLATTSMOUTH    CLOUDY    72  69  90 CALM      30.10F
$$

NEZ044-045-051>053-067-272100-
OMAHA AREA

CITY           SKY/WX    TMP DP  RH WIND       PRES   REMARKS
OMAHA EPPLEY   LGT RAIN  71  68  90 S9        30.08F
BLAIR          LGT RAIN  71  68  91 SE3       30.09F
FREMONT        CLOUDY    72  69  91 SE8       30.10F
MILLARD        CLOUDY    72  69  90 SE5       30.08F
OFFUTT AFB     PTSUNNY   71  71 100 SE5       30.08F
PLATTSMOUTH    CLOUDY    72  69  90 CALM      30.10F
WAHOO          MOCLDY    73  68  84 SE8       30.09F
$$



USA.gov is the U.S. government's official web portal to all federal, state and local government web resources and services.